STARLINK-11146, 60729

Orbit data source: Space-Track

STARLINK-11146, 60729 is a payload satellite owned by SpaceX/Seattle (US) in LEO that was launched on Wed, 28 Aug 2024 UTC via an FALCON 9 launch vehicle from the Air Force Eastern Test Range (AFETR). Payload-class satellites include a variety of spacecraft equipped with specific instruments for various scientific and technological missions. These include communications satellites like Starlink; space stations such as the ISS; scientific satellites like the Hubble; Earth observation satellites from companies like Planet Labs, Umbra, and HawkEye 360; GPS; miniature CubeSats for education and research; and military/defense satellites.

Loading next visibility...
Identifier
60729, 2024-152K
Orbit
LEO
Last TLE update
2 days ago
Origin
Manufacturer
SpaceX/Seattle
Mission
Operational Commercial Communications
Bus & Motor
STARLINK V2M, Unknown motor
Mass
730 kg wet, ~700 kg dry
Launch date (UTC)
2024-08-28 (8 months ago)
Launch vehicle
FALCON 9
Launch site
Air Force Eastern Test Range (AFETR)
Object type
Payload
Rocket body
Debris
Shape & HBR
Box + 2 Pan, 29 m
Radar Cross Section
36.964 m², Large (>1 m²)

Expand to show TLE details & history

TLE from 2 days ago
0 STARLINK-11146
1 60729U 24152K   25118.69170086  .00000088  00000-0  55871-5 0  9999
2 60729  53.1583 228.8815 0001006  66.7777 293.3347 15.69707521 39491
Epoch: 2025-04-28T16:36Z
Definitive object data (Epoch: 2025-04-28T16:36:02.954Z)
Latitude
0.00001°
Longitude
122.96711°
Altitude
360.38 km
Speed
7.694 km/s
True Right ascension
15h 15m 31s
True Declination
0° 00' 00"
Sunlit
Object was in full shadow at TLE epoch
Visualization TLE readout
Latitude
41.62674°
Longitude
155.90065°
Altitude
363.006 km
Speed
7.697 km/s
Apparent Right ascension
13h 28m 12s
Apparent Declination
51° 27' 22"
Sunlit
Object is in full shadow
Visualization observer readout
Local Sidereal Time
17:39:39
Azimuth
306.977° NW
Elevation
46.043°
Doppler factor
1
Orbital elements
Apogee altitude
360.673 km
Perigee altitude
359.317 km
Semi-major axis
6,738.132 km
Eccentricity
0.0001006
Inclination
53.1583°
RAAN
228.8815°
Arg. of periapsis
66.7777°
True anomaly
293.32411°
Mean anomaly
293.3347°
Eccentric anomaly
293.32941°
Mean motion
3.92404 °/min
BSTAR
0.0000055871
Orbital period
91.74 mins
Loading maneuver chart data...
Loading SW <> Apogee altitude chart data...
Loading historical data...
Loading historical data...
Loading historical data...
Loading historical data...
Loading historical data...
Loading historical data...
Loading historical data...

STARLINK-11146 Visibility forecast

Observer location: undefined°, undefined°

Span
Click to sort rows by Start time (UTC) header in descending order
Start Az.
Max El. time (UTC)
Max El. Az.
Max El.
End time (UTC)
End Az.
4 mins2025-05-01 08:57:42.686Z206.456° SW2025-05-01 08:59:42.686Z123.63° SE37.233°2025-05-01 09:01:42.686Z63.534° ENE
|